Sie sind vermutlich noch nicht im Forum angemeldet - Klicken Sie hier um sich kostenlos anzumelden  

Synchrondatenbank (von Arne Kaul) | Deutsche Synchronkartei | Seriensynchron - SeSyDaB | dubDB | Die vergessenen Filme || Datenschutz
Sie können sich hier anmelden
Dieses Forum hat 1.127 Themen
und zur Zeit 18.500 Beiträge
Sie haben keine Schreibrechte
 Games  »Neues Thema erstellen«
Forum Information
   Betreff Absender Antworten Zugriffe Letzter Beitrag
Dragon Age: Origins - Awakening (2010) (1, 2) lysander 18 3.311 11.01.2011 00:27
ArcaniA Gothic 4 (1, 2, 3, 4) Persian 50 8.371 08.01.2011 18:47
Robert Ludlum's Das Bourne Komplott (2008) Kirk20 0 559 08.01.2011 13:29
Vanquish Topper Harley 8 1.925 03.01.2011 19:36
Little Big Planet (1, 2, 3, 4, 5) Topper Harley 65 8.847 29.12.2010 16:59
Gothic 3: Götterdämmerung (2008) SFC 7 1.547 28.12.2010 11:47
Dungeon Keeper 2 gewuerzwiesel 2 932 27.12.2010 22:47
Gray Matter (2010) Jochen 8 1.134 24.12.2010 14:31
Majesty 2 (2009) [Um Mithilfe gebeten] Alamar 5 523 23.12.2010 20:27
Star Wars - The Force Unleashed II (1, 2, 3) Metro 35 5.294 18.12.2010 14:08
Alter Ego (2010) Kirk20 11 1.044 12.12.2010 12:25
GoldenEye 007 Topper Harley 2 792 12.12.2010 12:16
Harry Potter und die Heiligtümer des Todes - Teil 1 (2010) Kirk20 4 2.506 08.12.2010 15:08
Battlefield: Bad Company (2008) Kirk20 0 1.137 01.12.2010 19:11
Harry Potter und der Feuerkelch (2005) Kirk20 0 777 26.11.2010 01:39
The Scorpion King - Aufstieg des Akkadiers (2002) Torben 0 889 24.11.2010 16:27
Divinity 2 - The Dragon Knight Saga Alamar 2 2.313 24.11.2010 01:14
Myst V: End of Ages (2005) Kirk20 0 482 23.11.2010 14:50
Top Gun: Fire at Will! (1996) Kirk20 0 1.048 23.11.2010 12:38
Captain Buzz Lightyear – Star Command (2000) Kirk20 5 565 21.11.2010 16:35
Harry Potter und der Gefangene von Askaban (2004) Kirk20 1 3.558 18.11.2010 20:17
Fenimore Fillmore: The Westerner (2004) Kirk20 1 1.502 17.11.2010 21:42
Oben (2009) Kirk20 1 563 14.11.2010 21:45
Disneys Donald Duck: Phantomias - Platyrhynchos Kineticus (2002) Kirk20 0 903 14.11.2010 19:49
Tony Tough and the Night of Roasted Moths (2003) Kirk20 0 511 13.11.2010 20:17
Command & Conquer: Alarmstufe Rot 3 (2008) (1, 2, 3) Commander 33 3.626 13.11.2010 18:27
Batman Begins (2005) Kirk20 1 609 13.11.2010 12:57
Darkstar One (2006) Kirk20 1 1.940 12.11.2010 19:39
Lands of Lore III (1999) Kirk20 0 1.558 11.11.2010 16:15
Der Herr der Ringe: Die Abenteuer von Aragorn (2010) Kirk20 10 1.218 05.11.2010 20:10
Professor Layton und die verlorene Zukunft Alamar 3 1.201 05.11.2010 17:07
James Bond 007: Blood Stone (2010) Kirk20 6 1.389 04.11.2010 11:48
Disneys Aladdin: Nasiras Rache (2001) Kirk20 3 756 28.10.2010 18:30
G-Police (1997) Kirk20 0 1.139 28.10.2010 18:15
Wer wird Millionär? (2000) Kirk20 1 723 28.10.2010 17:36
Rome Total War Synchronstimmen Plautus 2 428 22.10.2010 19:03
Call of Juarez: Bound in Blood Topper Harley 6 1.071 21.10.2010 15:32
Ballerburg (2001) Persian 0 542 21.10.2010 10:08
Disneys Hercules (1997) Kirk20 5 1.623 19.10.2010 13:50
Disneys Tarzan (1999) Kirk20 0 534 18.10.2010 23:43
 Sprung Seite « zurück  1 - 17  18  19  20  21  22  23  24 - 29  weiter »

Farb-Legende: blau = Spekulation, orange = Trailer-Besetzung, grün = endgültige Besetzung, rot = Korrektur/Ergänzung zur endgültigen Besetzung


Wir lieben Synchron.
Erreichbar unter
215072.homepagemodules.de -- forum.serien-synchron.de -- forum.seriensynchron.de

Weitere Smileys auf www.smilie-harvester.de


Xobor Forum Software von Xobor | Forum, Fotos, Chat und mehr mit Xobor
Datenschutz